SCP
0 0 0 0 0 0 0 0 0 0 0 0 0 0 0 0 -0 -0 -0 0 0 0 0 0 0 0 0 0 0 0 0 0 0 0 0 0 0 0 0 0 0 0 0 0
0 0 0 0 0 0 0 0 0 0 0 0 0 0 0 0 0 0 -0 -0 0 0 0 0 0 0 0 0 0 0 0 0 0 0 0 0 0 0 0 0 0 0 0 0
0 0 0 0 0 0 0 0 0 0 0 0 0 0 0 0 0 0 0 0 -0 0 0 0 0 0 0 0 0 0 0 0 0 0 0 0 0 0 0 0 0 0 0 0
0 0 0 0 0 0 0 0 0 0 0 0 0 0 0 0 0 0 0 0 0 -0 0 0 0 0 0 0 0 0 0 0 0 0 0 0 0 0 0 0 0 0 0 0
0 0 0 0 0 0 0 0 0 0 0 0 0 0 0 0 0 0 0 0 0 0 0 0 0 0 0 0 0 0 0 0 0 0 0 0 0 0 0 0 0 0 0 0
0 0 0 0 0 0 0 0 0 0 0 0 0 0 0 0 0 0 0 0 0 0 0 0 0 0 0 0 0 0 0 0 0 0 0 0 0 0 0 0 0 0 0 0
0 0 0 0 0 0 0 0 0 0 0 0 0 0 0 0 0 0 0 0 0 0 0 0 0 0 0 0 0 0 0 0 0 0 0 0 0 0 0 0 0 0 0 0
0 0 0 0 0 0 0 0 0 0 0 0 0 0 0 0 0 0 0 0 0 0 0 0 0 0 0 0 0 0 0 0 0 0 0 0 0 0 0 0 0 0 0 0
0 0 0 0 0 0 0 0 0 0 0 0 0 0 0 0 0 0 0 0 0 0 0 0 0 0 0 0 0 0 0 0 0 0 0 0 0 0 0 0 0 0 0 0
0 0 0 0 0 0 0 0 0 0 0 0 0 0 0 0 0 0 0 0 0 0 0 0 0 0 0 0 0 0 0 0 0 0 0 0 0 0 0 0 0 0 0 0
0 0 0 0 0 0 0 0 0 0 0 0 0 0 0 0 0 0 0 0 0 0 0 0 0 0 0 0 0 0 0 0 0 0 0 0 0 0 0 0 0 0 0 0
0 0 0 0 0 0 0 0 0 0 0 0 0 0 0 0 0 0 0 0 0 0 0 0 0 0 0 0 0 0 0 0 0 0 0 0 0 0 0 0 0 0 0 0
0 0 0 0 0 0 0 0 0 0 0 0 0 0 0 0 0 0 0 0 0 0 0 0 0 0 0 0 0 0 0 0 0 0 0 0 0 0 0 0 0 0 0 0
0 0 0 0 0 0 0 0 0 0 0 0 0 0 0 0 0 0 0 0 0 0 0 0 0 0 0 0 0 0 0 0 0 0 0 0 0 0 0 0 0 0 0 0
0 0 0 0 0 0 0 0 0 0 0 0 0 0 0 0 0 0 0 0 0 0 0 0 0 0 0 0 0 0 0 0 0 0 0 0 0 0 0 0 0 0 0 0
0 0 0 0 0 0 0 0 0 0 0 0 0 0 0 0 0 0 0 0 0 0 0 0 0 0 0 0 0 0 0 0 0 0 -0 0 0 0 0 0 0 0 0 0
0 0 0 0 0 0 0 0 0 0 0 0 0 0 0 0 0 0 0 0 0 0 0 0 0 0 0 0 0 0 0 0 0 0 0 0 0 0 0 0 0 0 0 0
0 0 0 0 0 0 0 0 0 0 0 0 0 0 0 0 0 0 0 0 0 0 0 0 0 0 0 0 0 0 0 0 0 0 0 0 0 0 0 0 0 0 0 0
0 0 0 0 0 0 0 0 0 0 0 0 0 0 0 0 0 0 0 0 0 0 0 0 0 0 0 0 0 0 0 0 0 0 0 0 0 0 0 0 0 0 0 0
0 0 0 0 0 0 0 0 0 0 0 0 0 0 0 0 0 0 0 0 0 0 0 0 0 0 0 0 0 0 0 0 0 0 0 0 0 0 0 0 0 0 0 0
0 0 0 0 0 0 0 0 0 0 0 0 0 0 0 0 0 0 0 0 0 0 0 0 0 0 0 0 0 0 0 0 0 0 0 0 0 0 0 0 0 0 0 0
0 0 0 0 0 0 0 0 0 0 0 0 0 0 0 0 0 0 0 0 0 0 0 0 0 0 0 0 0 0 0 0 0 0 0 0 0 0 0 0 0 0 0 0
0 0 0 0 0 0 0 0 0 0 0 0 0 0 0 0 0 0 0 0 0 0 0 0 0 0 0 0 0 0 0 0 0 0 0 0 0 0 0 0 0 0 0 0
0 0 0 0 0 0 0 0 0 0 0 0 0 0 0 0 0 0 0 0 0 0 0 0 0 0 0 0 0 0 0 0 0 0 0 0 0 0 0 0 0 0 0 0
0 0 0 0 0 0 0 0 0 0 0 0 0 0 0 0 0 0 0 0 0 0 0 0 0 0 0 0 0 0 0 -0 -0 0 0 0 0 0 0 -0 -0 -0 -0 0
0 0 0 0 0 0 0 0 0 0 0 0 0 0 0 0 0 0 0 0 0 0 0 0 0 0 0 0 0 -0 -0 -0 -0 -0 -0 -0 -0 -0 -0 -0 -0 -0 -0 -0
Wind_Speed_500mb
8 8 3 4 6 6 8 5 2 5 2 10 10 16 21 29 49 49 49 50 53 53 44 27 13 19 38 42 40 40 36 31 33 33 30 27 23 21 22 20 21 22 21 22
9 2 5 4 6 5 3 3 4 5 6 8 9 17 17 32 29 35 40 50 55 58 57 48 31 9 22 37 39 38 37 35 33 33 30 27 21 19 17 16 19 21 23 24
7 3 1 4 4 3 1 5 4 3 5 8 8 5 7 12 32 41 51 47 57 60 63 64 52 36 11 15 29 32 31 33 32 33 32 34 30 26 22 11 10 12 17 22
4 3 3 5 4 9 3 4 3 5 5 5 3 3 2 8 25 38 44 51 56 65 68 73 67 55 37 19 7 14 22 25 27 27 29 34 35 34 31 29 24 23 22 21
2 3 4 2 2 6 6 4 5 3 5 2 1 3 2 4 18 21 34 42 53 62 70 75 79 72 55 37 25 14 9 12 15 19 21 25 31 32 33 33 31 30 28 24
5 4 2 2 5 3 11 7 9 7 4 0 4 4 1 5 2 9 23 37 50 62 68 72 74 76 76 60 46 33 21 12 6 7 11 15 21 24 28 30 31 33 34 28
11 4 6 2 4 4 7 7 3 1 1 3 2 6 3 5 10 13 19 31 48 58 66 70 73 75 74 72 67 60 50 42 27 13 4 8 14 20 26 30 32 33 32 33
7 5 7 12 4 4 3 6 6 5 3 2 1 6 5 10 17 22 31 39 49 58 60 65 67 67 66 64 61 57 55 52 47 42 36 26 13 11 18 25 30 34 36 36
7 5 9 6 5 3 1 1 2 9 3 1 6 6 3 11 13 20 24 39 46 52 57 58 59 61 59 58 57 52 48 45 42 39 36 33 29 25 22 17 18 23 28 33
2 7 3 8 2 10 2 7 2 4 4 6 4 7 7 17 16 13 16 24 36 43 48 50 52 54 53 51 48 46 44 43 41 37 34 32 31 29 27 24 21 20 20 23
4 2 9 2 10 3 8 5 8 4 3 4 2 4 4 8 18 16 14 20 29 35 40 41 43 43 44 43 43 43 40 38 36 35 32 28 25 24 24 25 26 26 25 22
6 5 5 2 8 4 5 5 6 3 2 2 1 3 4 4 20 24 20 20 23 29 33 36 39 40 40 40 40 40 38 36 36 34 32 31 27 25 25 25 26 25 25 24
7 2 5 6 6 5 11 6 4 5 3 7 4 3 5 12 15 16 20 17 21 27 31 34 37 41 41 39 39 38 38 37 35 35 35 34 32 32 31 32 30 29 27 25
3 2 5 8 1 2 6 5 3 2 3 4 9 11 11 11 13 15 15 15 22 29 33 34 37 41 42 42 41 41 40 39 39 40 39 38 37 37 37 36 35 34 33 32
8 2 3 6 8 5 8 8 5 8 7 10 7 4 11 9 10 11 17 19 25 30 33 34 37 41 43 45 46 47 47 47 45 45 44 42 40 38 37 37 36 34 35 35
15 2 7 7 7 8 8 5 5 1 3 3 9 6 4 9 15 11 12 19 23 25 27 31 34 40 47 51 54 57 56 55 54 54 51 49 47 45 42 40 39 37 37 37
6 3 5 6 10 15 3 2 6 3 2 3 4 2 3 5 6 2 6 13 18 23 28 35 42 50 54 57 59 62 62 61 59 58 59 60 59 58 56 52 48 46 45 44
2 2 1 4 10 5 1 1 5 9 5 7 7 6 8 4 9 12 2 11 18 24 33 42 52 59 61 60 58 58 58 58 58 58 59 59 61 63 63 63 64 63 62 60
9 3 2 2 3 8 2 4 3 2 4 12 5 2 18 16 18 11 8 14 25 33 42 49 54 56 56 56 55 54 53 52 51 52 56 58 59 62 63 62 62 61 61 62
8 7 4 2 2 7 4 1 12 8 5 14 11 14 22 10 6 14 17 26 35 41 47 52 53 51 48 47 47 49 48 49 49 52 54 55 55 54 55 53 53 53 50 53
2 2 5 6 5 10 4 8 9 8 4 19 20 32 35 16 20 12 25 33 39 43 45 44 42 40 39 38 38 41 43 43 49 51 53 52 48 46 43 44 46 45 45 45
4 4 6 4 5 11 5 8 3 20 19 41 47 42 32 21 18 23 30 35 41 42 40 36 35 34 31 35 41 40 40 44 46 44 40 38 35 36 34 36 37 39 40 41
6 10 5 11 7 10 38 33 34 24 50 49 27 21 23 22 25 33 37 37 36 33 31 28 28 26 23 31 33 38 41 43 40 35 35 37 38 37 34 32 31 33 35 37
8 8 6 4 10 36 36 47 41 17 20 21 21 24 25 25 28 31 32 31 29 26 24 25 20 17 25 28 30 35 38 36 34 33 32 34 35 34 34 27 27 31 37 42
11 8 6 9 30 36 28 12 32 31 26 24 26 29 28 26 28 28 27 26 22 21 19 19 18 20 26 27 29 32 33 30 29 32 34 33 35 39 37 34 35 39 38 37
18 12 8 11 34 24 37 45 32 38 36 30 35 34 30 31 28 26 23 21 20 18 18 18 19 20 24 25 26 27 28 28 23 30 30 33 33 33 33 33 33 33 34 34
Wind_Direction_500mb
20 63 121 230 171 136 130 121 217 267 289 85 75 68 34 23 36 26 23 24 29 30 27 23 341 240 227 231 235 233 233 232 227 227 228 234 244 249 254 259 261 261 263 260
23 76 189 101 119 123 102 96 282 287 353 105 126 90 66 41 36 32 25 26 24 29 33 36 34 25 224 225 230 234 235 234 233 233 235 241 250 261 264 262 264 263 261 262
145 186 322 192 133 105 214 174 221 162 38 43 124 84 56 49 44 37 40 39 40 35 32 35 37 39 31 237 231 225 227 237 241 240 240 244 249 263 271 291 323 321 287 274
214 281 138 127 166 136 339 195 123 126 83 204 11 214 86 69 44 34 28 34 37 41 45 46 44 42 44 59 158 204 210 217 234 245 248 253 259 265 274 282 284 286 284 287
320 45 57 52 226 168 179 89 83 70 108 108 256 142 166 338 38 22 24 36 45 49 51 50 53 51 49 57 72 99 141 188 213 236 249 257 262 267 274 281 290 294 294 294
262 298 206 197 65 72 142 80 55 72 94 228 285 166 279 6 54 45 34 42 50 55 57 59 60 61 59 61 65 69 75 93 129 208 237 248 257 263 265 269 277 281 283 282
342 355 336 52 89 29 79 64 332 5 60 216 311 101 50 57 68 82 62 51 57 58 57 57 57 58 59 62 64 66 68 66 61 53 1 282 267 265 266 267 266 264 266 273
28 356 7 338 76 185 50 154 161 254 210 259 346 187 143 118 104 89 80 73 64 59 59 58 57 57 58 60 62 64 66 66 62 59 54 44 18 316 285 277 273 270 268 263
21 287 320 53 356 59 108 3 197 103 50 145 131 81 88 121 100 91 78 71 62 57 56 56 54 52 54 55 56 57 60 60 58 54 50 45 39 32 21 352 315 293 282 274
206 324 317 290 87 43 118 151 23 22 242 256 221 199 176 172 153 122 90 76 67 63 58 54 49 48 48 49 50 52 51 49 48 45 42 38 37 32 25 13 3 352 334 306
350 87 288 332 26 34 355 27 41 114 138 237 262 196 1 194 166 147 124 91 70 60 56 52 46 43 42 41 39 39 40 39 37 34 30 27 23 21 16 14 13 9 356 343
341 133 280 273 298 21 93 102 89 127 259 61 322 220 355 101 144 142 131 100 72 57 46 41 38 38 35 32 29 27 25 25 23 19 14 11 8 6 4 5 2 358 356 351
336 341 1 357 1 25 58 36 76 98 88 225 206 186 83 129 121 129 125 97 58 41 36 33 29 27 25 22 21 18 14 10 5 3 1 358 354 353 354 354 352 347 344 341
162 112 210 221 331 37 303 348 65 146 210 247 231 163 180 145 132 120 108 76 44 35 28 21 16 12 9 6 3 1 1 357 351 349 348 347 345 344 344 344 342 341 341 336
59 246 332 275 274 254 243 265 189 211 241 240 354 163 158 159 142 106 81 48 33 26 19 12 4 358 353 350 348 345 343 343 342 340 338 338 335 333 331 330 333 334 334 334
357 332 1 291 7 355 283 296 271 20 332 272 123 100 122 118 160 124 68 35 23 13 5 359 353 348 343 337 332 329 327 326 326 326 325 324 322 321 322 322 324 323 323 324
13 50 31 275 339 321 279 54 105 103 2 272 206 146 74 74 93 178 215 17 14 4 354 345 339 335 331 328 325 320 319 318 316 315 312 312 312 312 313 314 313 313 314 315
149 112 60 298 337 240 173 3 146 118 71 72 75 72 72 54 342 349 130 335 343 339 335 332 328 325 323 322 320 318 317 315 312 310 307 309 310 308 308 308 309 309 308 307
172 121 76 16 279 298 226 201 96 100 105 27 5 351 340 330 319 306 271 330 330 324 321 321 319 319 318 318 317 315 316 319 317 314 313 311 310 310 310 310 311 312 313 313
92 77 106 146 246 261 190 239 330 156 160 336 286 277 264 232 239 259 286 303 309 313 313 313 315 318 318 319 320 321 321 320 318 318 319 319 318 315 314 315 315 316 315 316
73 34 188 233 250 283 221 25 115 188 157 304 290 261 246 212 235 261 289 299 306 310 315 319 321 325 329 332 333 333 330 327 321 318 315 315 316 317 320 315 315 318 319 323
185 196 218 166 216 268 152 66 9 270 274 303 292 279 264 253 267 286 300 309 313 316 318 322 327 331 336 337 333 335 333 329 327 328 331 334 344 346 344 340 335 333 334 336
259 198 197 188 230 259 288 272 282 277 294 293 282 270 244 253 279 295 303 307 312 316 323 327 332 344 330 337 344 343 344 343 346 356 359 356 354 356 351 354 356 359 359 355
262 188 220 32 254 261 288 293 310 327 305 292 291 267 253 269 283 294 301 306 312 320 324 330 342 337 346 344 348 350 349 356 4 13 9 6 358 4 10 10 9 7 10 13
228 177 202 255 278 284 282 275 320 308 294 270 281 269 270 285 296 300 302 305 308 315 324 332 331 335 344 347 348 351 357 8 22 25 20 21 32 26 21 28 31 28 28 23
191 198 182 225 259 260 280 304 296 299 283 278 278 267 276 288 294 295 296 297 301 308 320 321 325 329 342 343 340 349 359 3 13 29 17 21 27 23 22 27 42 39 32 29
Wind_Speed_850mb
8 8 3 4 6 6 8 5 2 5 2 10 10 16 21 29 49 49 49 50 53 53 44 27 13 19 38 42 40 40 36 31 33 33 30 27 23 21 22 20 21 22 21 22
9 2 5 4 6 5 3 3 4 5 6 8 9 17 17 32 29 35 40 50 55 58 57 48 31 9 22 37 39 38 37 35 33 33 30 27 21 19 17 16 19 21 23 24
7 3 1 4 4 3 1 5 4 3 5 8 8 5 7 12 32 41 51 47 57 60 63 64 52 36 11 15 29 32 31 33 32 33 32 34 30 26 22 11 10 12 17 22
4 3 3 5 4 9 3 4 3 5 5 5 3 3 2 8 25 38 44 51 56 65 68 73 67 55 37 19 7 14 22 25 27 27 29 34 35 34 31 29 24 23 22 21
2 3 4 2 2 6 6 4 5 3 5 2 1 3 2 4 18 21 34 42 53 62 70 75 79 72 55 37 25 14 9 12 15 19 21 25 31 32 33 33 31 30 28 24
5 4 2 2 5 3 11 7 9 7 4 0 4 4 1 5 2 9 23 37 50 62 68 72 74 76 76 60 46 33 21 12 6 7 11 15 21 24 28 30 31 33 34 28
11 4 6 2 4 4 7 7 3 1 1 3 2 6 3 5 10 13 19 31 48 58 66 70 73 75 74 72 67 60 50 42 27 13 4 8 14 20 26 30 32 33 32 33
7 5 7 12 4 4 3 6 6 5 3 2 1 6 5 10 17 22 31 39 49 58 60 65 67 67 66 64 61 57 55 52 47 42 36 26 13 11 18 25 30 34 36 36
7 5 9 6 5 3 1 1 2 9 3 1 6 6 3 11 13 20 24 39 46 52 57 58 59 61 59 58 57 52 48 45 42 39 36 33 29 25 22 17 18 23 28 33
2 7 3 8 2 10 2 7 2 4 4 6 4 7 7 17 16 13 16 24 36 43 48 50 52 54 53 51 48 46 44 43 41 37 34 32 31 29 27 24 21 20 20 23
4 2 9 2 10 3 8 5 8 4 3 4 2 4 4 8 18 16 14 20 29 35 40 41 43 43 44 43 43 43 40 38 36 35 32 28 25 24 24 25 26 26 25 22
6 5 5 2 8 4 5 5 6 3 2 2 1 3 4 4 20 24 20 20 23 29 33 36 39 40 40 40 40 40 38 36 36 34 32 31 27 25 25 25 26 25 25 24
7 2 5 6 6 5 11 6 4 5 3 7 4 3 5 12 15 16 20 17 21 27 31 34 37 41 41 39 39 38 38 37 35 35 35 34 32 32 31 32 30 29 27 25
3 2 5 8 1 2 6 5 3 2 3 4 9 11 11 11 13 15 15 15 22 29 33 34 37 41 42 42 41 41 40 39 39 40 39 38 37 37 37 36 35 34 33 32
8 2 3 6 8 5 8 8 5 8 7 10 7 4 11 9 10 11 17 19 25 30 33 34 37 41 43 45 46 47 47 47 45 45 44 42 40 38 37 37 36 34 35 35
15 2 7 7 7 8 8 5 5 1 3 3 9 6 4 9 15 11 12 19 23 25 27 31 34 40 47 51 54 57 56 55 54 54 51 49 47 45 42 40 39 37 37 37
6 3 5 6 10 15 3 2 6 3 2 3 4 2 3 5 6 2 6 13 18 23 28 35 42 50 54 57 59 62 62 61 59 58 59 60 59 58 56 52 48 46 45 44
2 2 1 4 10 5 1 1 5 9 5 7 7 6 8 4 9 12 2 11 18 24 33 42 52 59 61 60 58 58 58 58 58 58 59 59 61 63 63 63 64 63 62 60
9 3 2 2 3 8 2 4 3 2 4 12 5 2 18 16 18 11 8 14 25 33 42 49 54 56 56 56 55 54 53 52 51 52 56 58 59 62 63 62 62 61 61 62
8 7 4 2 2 7 4 1 12 8 5 14 11 14 22 10 6 14 17 26 35 41 47 52 53 51 48 47 47 49 48 49 49 52 54 55 55 54 55 53 53 53 50 53
2 2 5 6 5 10 4 8 9 8 4 19 20 32 35 16 20 12 25 33 39 43 45 44 42 40 39 38 38 41 43 43 49 51 53 52 48 46 43 44 46 45 45 45
4 4 6 4 5 11 5 8 3 20 19 41 47 42 32 21 18 23 30 35 41 42 40 36 35 34 31 35 41 40 40 44 46 44 40 38 35 36 34 36 37 39 40 41
6 10 5 11 7 10 38 33 34 24 50 49 27 21 23 22 25 33 37 37 36 33 31 28 28 26 23 31 33 38 41 43 40 35 35 37 38 37 34 32 31 33 35 37
8 8 6 4 10 36 36 47 41 17 20 21 21 24 25 25 28 31 32 31 29 26 24 25 20 17 25 28 30 35 38 36 34 33 32 34 35 34 34 27 27 31 37 42
11 8 6 9 30 36 28 12 32 31 26 24 26 29 28 26 28 28 27 26 22 21 19 19 18 20 26 27 29 32 33 30 29 32 34 33 35 39 37 34 35 39 38 37
18 12 8 11 34 24 37 45 32 38 36 30 35 34 30 31 28 26 23 21 20 18 18 18 19 20 24 25 26 27 28 28 23 30 30 33 33 33 33 33 33 33 34 34
Wind_Direction_850mb
20 63 121 230 171 136 130 121 217 267 289 85 75 68 34 23 36 26 23 24 29 30 27 23 341 240 227 231 235 233 233 232 227 227 228 234 244 249 254 259 261 261 263 260
23 76 189 101 119 123 102 96 282 287 353 105 126 90 66 41 36 32 25 26 24 29 33 36 34 25 224 225 230 234 235 234 233 233 235 241 250 261 264 262 264 263 261 262
145 186 322 192 133 105 214 174 221 162 38 43 124 84 56 49 44 37 40 39 40 35 32 35 37 39 31 237 231 225 227 237 241 240 240 244 249 263 271 291 323 321 287 274
214 281 138 127 166 136 339 195 123 126 83 204 11 214 86 69 44 34 28 34 37 41 45 46 44 42 44 59 158 204 210 217 234 245 248 253 259 265 274 282 284 286 284 287
320 45 57 52 226 168 179 89 83 70 108 108 256 142 166 338 38 22 24 36 45 49 51 50 53 51 49 57 72 99 141 188 213 236 249 257 262 267 274 281 290 294 294 294
262 298 206 197 65 72 142 80 55 72 94 228 285 166 279 6 54 45 34 42 50 55 57 59 60 61 59 61 65 69 75 93 129 208 237 248 257 263 265 269 277 281 283 282
342 355 336 52 89 29 79 64 332 5 60 216 311 101 50 57 68 82 62 51 57 58 57 57 57 58 59 62 64 66 68 66 61 53 1 282 267 265 266 267 266 264 266 273
28 356 7 338 76 185 50 154 161 254 210 259 346 187 143 118 104 89 80 73 64 59 59 58 57 57 58 60 62 64 66 66 62 59 54 44 18 316 285 277 273 270 268 263
21 287 320 53 356 59 108 3 197 103 50 145 131 81 88 121 100 91 78 71 62 57 56 56 54 52 54 55 56 57 60 60 58 54 50 45 39 32 21 352 315 293 282 274
206 324 317 290 87 43 118 151 23 22 242 256 221 199 176 172 153 122 90 76 67 63 58 54 49 48 48 49 50 52 51 49 48 45 42 38 37 32 25 13 3 352 334 306
350 87 288 332 26 34 355 27 41 114 138 237 262 196 1 194 166 147 124 91 70 60 56 52 46 43 42 41 39 39 40 39 37 34 30 27 23 21 16 14 13 9 356 343
341 133 280 273 298 21 93 102 89 127 259 61 322 220 355 101 144 142 131 100 72 57 46 41 38 38 35 32 29 27 25 25 23 19 14 11 8 6 4 5 2 358 356 351
336 341 1 357 1 25 58 36 76 98 88 225 206 186 83 129 121 129 125 97 58 41 36 33 29 27 25 22 21 18 14 10 5 3 1 358 354 353 354 354 352 347 344 341
162 112 210 221 331 37 303 348 65 146 210 247 231 163 180 145 132 120 108 76 44 35 28 21 16 12 9 6 3 1 1 357 351 349 348 347 345 344 344 344 342 341 341 336
59 246 332 275 274 254 243 265 189 211 241 240 354 163 158 159 142 106 81 48 33 26 19 12 4 358 353 350 348 345 343 343 342 340 338 338 335 333 331 330 333 334 334 334
357 332 1 291 7 355 283 296 271 20 332 272 123 100 122 118 160 124 68 35 23 13 5 359 353 348 343 337 332 329 327 326 326 326 325 324 322 321 322 322 324 323 323 324
13 50 31 275 339 321 279 54 105 103 2 272 206 146 74 74 93 178 215 17 14 4 354 345 339 335 331 328 325 320 319 318 316 315 312 312 312 312 313 314 313 313 314 315
149 112 60 298 337 240 173 3 146 118 71 72 75 72 72 54 342 349 130 335 343 339 335 332 328 325 323 322 320 318 317 315 312 310 307 309 310 308 308 308 309 309 308 307
172 121 76 16 279 298 226 201 96 100 105 27 5 351 340 330 319 306 271 330 330 324 321 321 319 319 318 318 317 315 316 319 317 314 313 311 310 310 310 310 311 312 313 313
92 77 106 146 246 261 190 239 330 156 160 336 286 277 264 232 239 259 286 303 309 313 313 313 315 318 318 319 320 321 321 320 318 318 319 319 318 315 314 315 315 316 315 316
73 34 188 233 250 283 221 25 115 188 157 304 290 261 246 212 235 261 289 299 306 310 315 319 321 325 329 332 333 333 330 327 321 318 315 315 316 317 320 315 315 318 319 323
185 196 218 166 216 268 152 66 9 270 274 303 292 279 264 253 267 286 300 309 313 316 318 322 327 331 336 337 333 335 333 329 327 328 331 334 344 346 344 340 335 333 334 336
259 198 197 188 230 259 288 272 282 277 294 293 282 270 244 253 279 295 303 307 312 316 323 327 332 344 330 337 344 343 344 343 346 356 359 356 354 356 351 354 356 359 359 355
262 188 220 32 254 261 288 293 310 327 305 292 291 267 253 269 283 294 301 306 312 320 324 330 342 337 346 344 348 350 349 356 4 13 9 6 358 4 10 10 9 7 10 13
228 177 202 255 278 284 282 275 320 308 294 270 281 269 270 285 296 300 302 305 308 315 324 332 331 335 344 347 348 351 357 8 22 25 20 21 32 26 21 28 31 28 28 23
191 198 182 225 259 260 280 304 296 299 283 278 278 267 276 288 294 295 296 297 301 308 320 321 325 329 342 343 340 349 359 3 13 29 17 21 27 23 22 27 42 39 32 29